Regional Weather Roundup
Issued by NWS Albany, NY

Home | Current Version | Previous Version | Text Only | Print | Product List | Glossary On
Versions: 1 2 3 4 5 6 7 8 9 10 11 12 13 14 15 16 17 18 19 20 21 22 23 24 25 26 27 28 29 30 31 32 33 34 35 36 37 38 39 40 41 42 43 44 45 46 47 48 49 50
000
ASUS41 KALY 292110
RWRALY

NEW YORK STATE HOURLY WEATHER ROUNDUP
NATIONAL WEATHER SERVICE ALBANY NY
500 PM EDT SUN MAR 29 2015

NOTE: "FAIR" INDICATES FEW OR NO CLOUDS BELOW 12,000 FEET WITH NO
SIGNIFICANT WEATHER AND/OR NO OBSTRUCTIONS TO VISIBILITY.

NYZ032-033-038>043-046>054-057>066-NYZ062>081-292200-
EAST


CITY           SKY/WX    TMP DP  RH WIND       PRES   REMARKS
ALBANY         MOSUNNY   41   5  22 SW7       30.13F
GLENS FALLS    SUNNY     40  16  37 S10       30.09F WCI  33
POUGHKEEPSIE   SUNNY     45   2  17 VRB5      30.13F
NEWBURGH       SUNNY     43   5  21 W7        30.12F
MONTGOMERY     SUNNY     44   3  18 SW10      30.12F
WHITE PLAINS   SUNNY     42   4  20 NW8       30.14F
ISLIP          SUNNY     42   6  22 W8        30.16S
NEW YORK CITY  MOSUNNY   45   4  18 NW3       30.16F
CENTRAL PARK   SUNNY     45   3  17 W9        30.18F
$$

NYZ005>009-017-018-044>046-055-056-292200-
CENTRAL


CITY           SKY/WX    TMP DP  RH WIND       PRES   REMARKS
FULTON         SUNNY     37   9  31 S10       30.12F WCI  30
SYRACUSE       MOSUNNY   39   7  26 SW10      30.12F WCI  32
ROME           SUNNY     36   9  32 W5        30.14F WCI  32
ELMIRA         SUNNY     45   4  18 W12       30.09F
BINGHAMTON     SUNNY     36   7  29 SW7       30.08F WCI  30
MONTICELLO     SUNNY     37   5  25 W10       30.12S WCI  30
$$

NYZ026>034-041>043-292200-
NORTH


CITY           SKY/WX    TMP DP  RH WIND       PRES   REMARKS
WATERTOWN      SUNNY     38  14  37 SW14      30.10F WCI  30
FORT DRUM      NOT AVBL
MASSENA        MOSUNNY   37  14  38 SW20G25   30.06F WCI  27
SARANAC LAKE   SUNNY     33   6  32 SW8       29.99F WCI  26
PLATTSBURGH    SUNNY     38  13  35 SE14      30.05F WCI  30
$$

NYZ001>004-010>016-019>021-292200-
WEST


CITY           SKY/WX    TMP DP  RH WIND       PRES   REMARKS
NIAGARA FALLS  PTSUNNY   40  17  39 S16G24    30.02F WCI  31
BUFFALO        PTSUNNY   38  20  48 SW8       30.03F WCI  32
DUNKIRK        SUNNY     43  16  33 S17G24    30.03F
JAMESTOWN      SUNNY     39  10  30 S15G25    30.01F WCI  31
WELLSVILLE     SUNNY     38   7  27 S12G22    30.03F WCI  30
ROCHESTER      MOSUNNY   43  12  28 SW14      30.06F
PENN YAN       SUNNY     43   8  23 S9        30.07F
$$

             KEY
       WCI = WIND CHILL INDEX
       VSB = VISIBILITY
       HX  = HEAT INDEX
$$


USA.gov is the U.S. government's official web portal to all federal, state and local government web resources and services.